Flight Track Log - Related Links

Times and Time Zones

All times are in EDT time to prevent confusion due to time zone crossing. See the ASQ6124 flight status page for this flight to view local times or setup timezone preferences in your user account.


Time Position Orientation Groundspeed Altitude Reporting Facility
EDT Latitude Longitude Course Direction KTS MPH feet Rate Location/Type
Tue 01:33:00 PM 40.0033 -82.9175 274° West 163 188 1,200  Level Indianapolis Center
Tue 01:33:31 PM 40.0056 -82.9553 276° West 179 206 2,300 1,912 Climbing Indianapolis Center
Tue 01:34:31 PM 40.0122 -83.0394 279° West 235 270 4,100 2,089 Climbing Indianapolis Center
Tue 01:35:23 PM 40.0208 -83.1069 277° West 245 282 6,200 2,357 Climbing Indianapolis Center
Tue 01:36:23 PM 40.0294 -83.1964 287° West 245 282 8,500 2,100 Climbing Indianapolis Center
Tue 01:37:23 PM 40.0506 -83.2858 291° West 256 295 10,400 1,250 Climbing Indianapolis Center
Tue 01:38:23 PM 40.0800 -83.3861 293° West 280 322 11,000 1,050 Climbing Indianapolis Center
Tue 01:39:23 PM 40.1156 -83.4972 293° West 316 364 12,500 1,550 Climbing Indianapolis Center
Tue 01:40:23 PM 40.1511 -83.6058 293° West 323 372 14,100 1,400 Climbing Indianapolis Center
Tue 01:41:23 PM 40.1864 -83.7172 292° West 330 380 15,300 1,150 Climbing Indianapolis Center
Tue 01:42:23 PM 40.2217 -83.8317 292° West 330 380 16,400 1,150 Climbing Indianapolis Center
Tue 01:43:23 PM 40.2567 -83.9461 293° West 335 386 17,600 1,000 Climbing Indianapolis Center
Tue 01:44:23 PM 40.2917 -84.0550 291° West 343 395 18,400 950 Climbing Indianapolis Center
Tue 01:45:23 PM 40.3267 -84.1722 295° West 348 400 19,500 1,050 Climbing Indianapolis Center
Tue 01:46:23 PM 40.3697 -84.2953 294° West 355 409 20,500 1,050 Climbing Indianapolis Center
Tue 01:47:23 PM 40.4106 -84.4156 313° West 355 409 21,600 1,103 Climbing Indianapolis Center
Tue 01:49:28 PM 40.5664 -84.6372 316° Northwest 379 436 23,900 1,070 Climbing Chicago Center
Tue 01:50:28 PM 40.6414 -84.7331 314° West 379 436 24,900 1,050 Climbing Chicago Center
Tue 01:51:28 PM 40.7119 -84.8297 314° West 379 436 26,000 550 Climbing Chicago Center
Tue 01:52:28 PM 40.7847 -84.9289 316° Northwest 384 442 26,000  Level Chicago Center
Tue 01:53:28 PM 40.8636 -85.0306 314° West 389 448 26,000  Level Chicago Center
Tue 01:54:28 PM 40.9361 -85.1303 306° West 396 456 26,000  Level Chicago Center
Tue 01:55:28 PM 41.0033 -85.2553 297° West 412 474 26,000  Level Chicago Center
Tue 01:56:28 PM 41.0561 -85.3953 296° West 422 486 26,000 -50 Level Chicago Center
Tue 01:57:28 PM 41.1069 -85.5356 295° West 422 486 25,900 -600 Descending Chicago Center
Tue 01:58:28 PM 41.1575 -85.6789 296° West 427 491 24,800 -950 Descending Chicago Center
Tue 01:59:28 PM 41.2078 -85.8169 295° West 434 499 24,000 -400 Descending Chicago Center
Tue 02:00:28 PM 41.2603 -85.9658 292° West 421 484 24,000  Level Chicago Center
Tue 02:01:28 PM 41.3064 -86.1183 288° West 421 484 24,000  Level Chicago Center
Tue 02:02:28 PM 41.3417 -86.2661 290° West 426 490 24,000 -50 Level Chicago Center
Tue 02:03:28 PM 41.3808 -86.4108 287° West 426 490 23,900 -950 Descending Chicago Center
Tue 02:04:28 PM 41.4139 -86.5589 287° West 419 482 22,100 -2,050 Descending Chicago Center
Tue 02:05:28 PM 41.4464 -86.6989 290° West 414 476 19,800 -2,300 Descending Chicago Center
Tue 02:06:28 PM 41.4850 -86.8386 287° West 409 471 17,500 -2,350 Descending Chicago Center
Tue 02:07:28 PM 41.5147 -86.9650 288° West 385 443 15,100 -2,300 Descending Chicago Center
Tue 02:08:28 PM 41.5467 -87.0942 288° West 372 428 12,900 -1,700 Descending Chicago Center
Tue 02:09:28 PM 41.5761 -87.2181 304° West 366 421 11,700 -1,150 Descending Chicago Center
Tue 02:10:28 PM 41.6303 -87.3275 309° West 356 410 10,600 -936 Descending Chicago Center
Tue 02:11:17 PM 41.6833 -87.4167 307° West 350 403 10,000 -298 Descending Chicago TRACON
Tue 02:12:29 PM 41.7500 -87.5333 315° West 351 404 10,000 -200 Level Chicago TRACON
Tue 02:13:17 PM 41.8000 -87.6000 315° West 290 334 9,600 -1,176 Descending Chicago TRACON
Tue 02:14:11 PM 41.8500 -87.6667 331° Northwest 282 325 8,000 -1,300 Descending Chicago TRACON
Tue 02:15:17 PM 41.9167 -87.7167 360° North 263 303 7,000 -476 Descending Chicago TRACON
Tue 02:16:17 PM 41.9833 -87.7167 29° Northeast 257 296 7,000 -579 Level Chicago TRACON
Tue 02:17:11 PM 42.0500 -87.6667 334° Northwest 252 290 5,900 -1,316 Descending Chicago TRACON
Tue 02:18:11 PM 42.1000 -87.7000 270° West 251 289 4,500 -1,450 Descending Chicago TRACON
Tue 02:19:11 PM 42.1000 -87.7833 217° Southwest 224 258 3,000 -1,095 Descending Chicago TRACON
Tue 02:20:17 PM 42.0500 -87.8333 236° Southwest 194 223 2,200 -762 Descending Chicago TRACON
Tue 02:21:17 PM 42.0333 -87.8667 236° Southwest 133 153 1,400 -800 Descending Chicago TRACON

Login

Don't have an account? Register now (free) for customized features, flight alerts, and more!